Tracking 28529 objects as of 25-Feb-2024
HD Live streaming from Space Station
objects crossing your sky now

IRIDIUM 36

Track IRIDIUM 36 now!
10-day predictions
IRIDIUM 36 is classified as:


NORAD ID: 24967
Int'l Code: 1997-056C
Perigee: 775.1 km
Apogee: 778.4 km
Inclination: 86.4 °
Period: 100.2 minutes
Semi major axis: 7147 km
RCS: 3.602 m2 (large)
Launch date: September 27, 1997
Source: United States (US)
Launch site: AIR FORCE WESTERN TEST RANGE (AFWTR)
Your satellite tracking list
Your tracking list is empty




NASA's NSSDC Master Catalog

Two Line Element Set (TLE):
1 24967U 97056C   24055.60061052  .00000886  00000-0  29472-3 0  9990
2 24967  86.4004  13.9471 0002358  88.9140 271.2327 14.36646365383489
Source of the keplerian elements: AFSPC